Location: Berlise
(49.6641°N, 4.1077°E)
Time: 03:13:57
(UTC+00:00)

Cosmos 1076 Rocket - Pass Details

Date: 27 January 2021
Orbit: 588 x 614 km, 82.5° (Epoch: 24 February)

Event Time Altitude Azimuth Distance (km) Brightness Sun altitude
Rises 06:43:16 0° 350° (N) 2,847 6.7 -6.6°
Reaches altitude 10° 06:45:29 10° 351° (N) 1,937 5.8 -6.3°
Maximum altitude 06:49:47 84° 81° (E) 601 3.6 -5.6°
Drops below altitude 10° 06:54:00 10° 169° (S) 1,912 6.6 -5.0°
Sets 06:56:11 0° 170° (S) 2,807 7.4 -4.7°
